This demonstration page uses our WeatherBlox Daily Observations layout. Learn more.

Left ArrowRight Arrow

44.8408, -93.29828

Hourly Observations for June 8, 2015

Temp ( °F °C ) Dew Point ( °F °C ) Humidity (%) Winds ( mph kmh ) Pressure ( in mb ) Visibility ( mi km ) Precip ( " mm )
12:53 am 00:53 Mostly Cloudy 67 19.4 55 12.8 66 66 SSW 3 6 29.68 1005 10 16 0.00 0.00
1:53 am 01:53 Mostly Cloudy 65 18.3 57 13.9 76 76 SSW 5 7 29.69 1005 10 16 0.00 0.00
2:53 am 02:53 Partly Cloudy 64 17.8 57 13.9 78 78 WSW 3 6 29.68 1005 10 16 0.00 0.00
3:53 am 03:53 Partly Cloudy 62 16.7 57 13.9 84 84 NW 3 6 29.69 1005 10 16 0.00 0.00
4:53 am 04:53 Mostly Cloudy 62 16.7 58 14.4 86 86 W 3 6 29.70 1006 10 16 0.00 0.00
5:53 am 05:53 Mostly Cloudy 63 17.2 58 14.4 84 84 WNW 5 7 29.71 1006 10 16 0.00 0.00
6:53 am 06:53 Mostly Cloudy 63 17.2 57 13.9 81 81 NW 8 13 29.73 1007 10 16 0.00 0.00
7:53 am 07:53 Mostly Sunny 66 18.9 56 13.3 70 70 NW 10 17 29.74 1007 10 16 0.00 0.00
8:53 am 08:53 Partly Cloudy 69 20.6 56 13.3 63 63 NW 6 9 29.75 1007 10 16 0.00 0.00
9:53 am 09:53 Mostly Sunny 72 22.2 56 13.3 57 57 N 8 13 29.75 1008 10 16 0.00 0.00
10:53 am 10:53 Mostly Sunny 74 23.3 56 13.3 54 54 WNW 10 17 29.76 1008 10 16 0.00 0.00
11:53 am 11:53 Mostly Sunny 77 25 57 13.9 50 50 WNW 13 20 29.75 1008 10 16 0.00 0.00
12:53 pm 12:53 Mostly Sunny 78 25.6 56 13.3 47 47 NW 9 15 29.75 1008 10 16 0.00 0.00
1:53 pm 13:53 Partly Cloudy 79 26.1 57 13.9 47 47 NW 14 22 29.75 1008 10 16 0.00 0.00
2:53 pm 14:53 Partly Cloudy 80 26.7 57 13.9 45 45 NW 13 20 29.75 1008 10 16 0.00 0.00
3:53 pm 15:53 Partly Cloudy 79 26.1 56 13.3 45 45 WNW 12 19 29.75 1007 10 16 0.00 0.00
4:53 pm 16:53 Partly Cloudy 80 26.7 56 13.3 44 44 NW 9 15 29.75 1008 10 16 0.00 0.00
5:53 pm 17:53 Partly Cloudy 80 26.7 54 12.2 41 41 NW 12 19 29.75 1007 10 16 0.00 0.00
6:53 pm 18:53 Partly Cloudy 79 26.1 54 12.2 42 42 WNW 13 20 29.75 1007 10 16 0.00 0.00
7:53 pm 19:53 Partly Cloudy 78 25.6 54 12.2 43 43 WNW 8 13 29.75 1008 10 16 0.00 0.00
8:53 pm 20:53 Mostly Sunny 75 23.9 54 12.2 48 48 W 6 9 29.76 1008 10 16 0.00 0.00
9:53 pm 21:53 Mostly Clear 74 23.3 54 12.2 50 50 Calm 29.76 1008 10 16 0.00 0.00
10:53 pm 22:53 Mostly Clear 74 23.3 55 12.8 52 52 SW 3 6 29.76 1008 10 16 0.00 0.00
11:53 pm 23:53 Mostly Clear 72 22.2 55 12.8 55 55 SSW 3 6 29.76 1008 10 16 0.00 0.00

Powered by AerisWeather